Showing default

KUIPER-00194, 68577

Orbit data source: Space-Track

KUIPER-00194, 68577 is a payload satellite owned by Kuiper Systems (US) in LEO that was launched on Sat, 04 Apr 2026 UTC via an ATLAS V 551 launch vehicle from the Air Force Eastern Test Range (AFETR). Payload-class satellites include a variety of spacecraft equipped with specific instruments for various scientific and technological missions. These include communications satellites like Starlink; space stations such as the ISS; scientific satellites like the Hubble; Earth observation satellites from companies like Planet Labs, Umbra, and HawkEye 360; GPS; miniature CubeSats for education and research; and military/defense satellites.

Loading next visibility...
Identifier
68577, 2026-072E
Orbit
LEO
Country
Flag of USUS
Related business
Manufacturer
Kuiper Systems
Mission
Operational spacecraft
Bus & Motor
KUIPER, Unknown motor
Mass
~490 kg wet, ~490 kg dry
Launch date (UTC)
2026-04-04 (2 months ago)
Launch vehicle
ATLAS V 551
Launch site
Air Force Eastern Test Range (AFETR)
Object type
Payload
Rocket body
Debris
Shape & HBR
Unknown shape, 3.4 m
Radar Cross Section
Large (>1 m²)

Expand to show TLE details & history
Last TLE update: 11 hours ago

TLE from 11 hours ago
0 KUIPER-00194
1 68577U 26072E   26150.16668980  .00019460  00000-0  24702-2 0  9995
2 68577  51.9019 270.3522 0002587 356.9205 359.6690 14.81668310  5723
Epoch: 2026-05-30T04:00Z
TLE epoch observation values (Epoch: 2026-05-30T04:00:01.998Z)
Latitude
-2.77566°
Longitude
-39.50938°
Altitude
623.402 km
Speed
7.549 km/s
True Right ascension
17h 52m 44s
True Declination
-2° 45' 32"
Sunlit
Object was in full shadow at epoch
Visualization orbit readout
Latitude
Unknown
Longitude
Unknown
Altitude
Unknown
Speed
Unknown
Apparent Right ascension
Unknown
Apparent Declination
Unknown
Sunlit
N/A
Visualization observer readout
Local Sidereal Time
00:43:13
Azimuth
Unknown
Elevation
Unknown
Doppler factor
Unknown
Orbital elements
Apogee altitude
626.326 km
Perigee altitude
622.703 km
Semi-major axis
7,002.651 km
Eccentricity
0.00026
Inclination
51.9019°
RAAN
270.3522°
Arg. of periapsis
356.9205°
True anomaly
359.66883°
Mean anomaly
359.669°
Eccentric anomaly
359.66891°
Mean motion
3.70382 °/min
Orbital period
97.2 mins
BSTAR
0.0024702
Loading maneuver chart data...
Computing Atmospheric mass density...
Loading historical data...
Loading historical data...
Loading historical data...
Loading historical data...
Loading historical data...
Loading historical data...
Loading historical data...

Documentation

Showing up to 5 results
|